Time,TemperatureF,DewpointF,PressureIn,WindDirection,WindDirectionDegrees,WindSpeedMPH,WindSpeedGustMPH,Humidity,HourlyPrecipIn,Conditions,Clouds,dailyrainin,SolarRadiationWatts/m^2,SoftwareType,DateUTC
2013-12-21 00:00:00,21.8,11.5,29.94,East,83,1.0,3.0,64,0.00,,---,0.00,0.00,VWS V14.01,2013-12-21 06:00:00,
2013-12-21 00:02:00,21.8,11.5,29.93,East,83,1.0,2.0,64,0.00,,---,0.00,0.00,VWS V14.01,2013-12-21 06:02:00,
2013-12-21 00:07:00,21.8,11.5,29.94,East,83,0.0,2.0,64,0.00,,---,0.00,0.00,VWS V14.01,2013-12-21 06:07:00,
2013-12-21 00:12:00,21.9,11.6,29.93,East,83,0.0,2.0,64,0.00,,---,0.00,0.00,VWS V14.01,2013-12-21 06:12:00,
2013-12-21 00:17:00,21.9,11.6,29.92,East,83,0.0,2.0,64,0.00,,---,0.00,0.00,VWS V14.01,2013-12-21 06:17:00,
2013-12-21 00:22:00,21.9,11.2,29.92,East,83,0.0,2.0,63,0.00,,---,0.00,0.00,VWS V14.01,2013-12-21 06:22:00,
2013-12-21 00:27:00,21.8,11.2,29.92,East,83,0.0,2.0,63,0.00,,---,0.00,0.00,VWS V14.01,2013-12-21 06:27:00,
2013-12-21 00:30:00,21.8,11.2,29.92,East,83,0.0,2.0,63,0.00,,---,0.00,0.00,VWS V14.01,2013-12-21 06:30:00,
2013-12-21 00:32:00,21.8,11.2,29.91,East,83,0.0,0.0,63,0.00,,---,0.00,0.00,VWS V14.01,2013-12-21 06:32:00,
2013-12-21 00:34:00,21.8,11.2,29.91,East,83,0.0,0.0,63,0.00,,---,0.00,0.00,VWS V14.01,2013-12-21 06:34:00,
2013-12-21 00:39:00,21.8,11.2,29.91,East,83,0.0,2.0,63,0.00,,---,0.00,0.00,VWS V14.01,2013-12-21 06:39:00,
2013-12-21 00:44:00,21.9,11.6,29.91,East,83,1.0,2.0,64,0.00,,---,0.00,0.00,VWS V14.01,2013-12-21 06:44:00,
2013-12-21 00:49:00,21.9,11.6,29.90,East,83,2.0,3.0,64,0.00,,---,0.00,0.00,VWS V14.01,2013-12-21 06:49:00,
2013-12-21 00:54:00,21.9,11.2,29.89,East,83,2.0,3.0,63,0.00,,---,0.00,0.00,VWS V14.01,2013-12-21 06:54:00,
2013-12-21 00:59:00,21.8,11.2,29.90,WNW,293,4.0,6.0,63,0.00,,---,0.00,0.00,VWS V14.01,2013-12-21 06:59:00,
2013-12-21 01:00:00,21.8,11.2,29.90,WNW,290,4.0,6.0,63,0.00,,---,0.00,0.00,VWS V14.01,2013-12-21 07:00:00,
2013-12-21 01:04:00,21.6,11.0,29.89,WNW,292,5.0,6.0,63,0.00,,---,0.00,0.00,VWS V14.01,2013-12-21 07:04:00,
2013-12-21 01:09:00,21.3,11.0,29.88,West,280,2.0,6.0,64,0.00,,---,0.00,0.00,VWS V14.01,2013-12-21 07:09:00,
2013-12-21 01:14:00,21.3,11.0,29.88,WNW,289,4.0,6.0,64,0.00,,---,0.00,0.00,VWS V14.01,2013-12-21 07:14:00,
2013-12-21 01:19:00,21.3,11.4,29.87,NW,319,3.0,6.0,65,0.00,,---,0.00,0.00,VWS V14.01,2013-12-21 07:19:00,
2013-12-21 01:24:00,21.3,11.4,29.85,WNW,303,6.0,8.0,65,0.00,,---,0.00,0.00,VWS V14.01,2013-12-21 07:24:00,
2013-12-21 01:29:00,21.3,11.4,29.85,NW,309,6.0,8.0,65,0.00,,---,0.00,0.00,VWS V14.01,2013-12-21 07:29:00,
2013-12-21 01:30:00,21.3,11.4,29.85,NNW,336,3.0,8.0,65,0.00,,---,0.00,0.00,VWS V14.01,2013-12-21 07:30:00,
2013-12-21 01:34:00,21.3,11.4,29.85,NW,320,5.0,9.0,65,0.00,,---,0.00,0.00,VWS V14.01,2013-12-21 07:34:00,
2013-12-21 01:39:00,21.1,11.2,29.83,NW,315,6.0,9.0,65,0.00,,---,0.00,0.00,VWS V14.01,2013-12-21 07:39:00,
2013-12-21 01:44:00,21.1,11.2,29.82,NNW,342,7.0,9.0,65,0.00,,---,0.00,0.00,VWS V14.01,2013-12-21 07:44:00,
2013-12-21 01:49:00,21.1,11.2,29.81,North,355,8.0,9.0,65,0.00,,---,0.00,0.00,VWS V14.01,2013-12-21 07:49:00,
2013-12-21 01:54:00,21.0,11.4,29.81,NW,316,7.0,10.0,66,0.00,,---,0.00,0.00,VWS V14.01,2013-12-21 07:54:00,
2013-12-21 01:59:00,21.0,11.4,29.82,North,350,4.0,10.0,66,0.00,,---,0.00,0.00,VWS V14.01,2013-12-21 07:59:00,
2013-12-21 02:00:00,21.0,11.4,29.82,North,350,2.0,10.0,66,0.00,,---,0.00,0.00,VWS V14.01,2013-12-21 08:00:00,
2013-12-21 02:04:00,21.0,11.4,29.83,NNW,329,6.0,9.0,66,0.00,,---,0.00,0.00,VWS V14.01,2013-12-21 08:04:00,
2013-12-21 02:09:00,21.0,11.4,29.84,NW,321,5.0,9.0,66,0.00,,---,0.00,0.00,VWS V14.01,2013-12-21 08:09:00,
2013-12-21 02:14:00,21.0,11.4,29.84,NNW,330,6.0,9.0,66,0.00,,---,0.00,0.00,VWS V14.01,2013-12-21 08:14:00,
2013-12-21 02:19:00,21.0,11.4,29.84,NW,323,4.0,9.0,66,0.00,,---,0.00,0.00,VWS V14.01,2013-12-21 08:19:00,
2013-12-21 02:24:00,21.0,11.4,29.84,NW,326,7.0,9.0,66,0.00,,---,0.00,0.00,VWS V14.01,2013-12-21 08:24:00,
2013-12-21 02:29:00,21.0,11.4,29.83,NNW,344,6.0,9.0,66,0.00,,---,0.00,0.00,VWS V14.01,2013-12-21 08:29:00,
2013-12-21 02:30:00,21.0,11.4,29.83,NNW,339,3.0,9.0,66,0.00,,---,0.00,0.00,VWS V14.01,2013-12-21 08:30:00,
2013-12-21 02:34:00,21.0,11.8,29.84,NNW,340,5.0,6.0,67,0.00,,---,0.00,0.00,VWS V14.01,2013-12-21 08:34:00,
2013-12-21 02:39:00,21.0,11.4,29.84,NNW,332,6.0,6.0,66,0.00,,---,0.00,0.00,VWS V14.01,2013-12-21 08:39:00,
2013-12-21 02:44:00,21.0,11.8,29.84,NW,326,6.0,9.0,67,0.00,,---,0.00,0.00,VWS V14.01,2013-12-21 08:44:00,
2013-12-21 02:49:00,21.0,11.8,29.83,NW,306,5.0,9.0,67,0.00,,---,0.00,0.00,VWS V14.01,2013-12-21 08:49:00,
2013-12-21 02:54:00,20.8,11.6,29.82,NNW,331,5.0,9.0,67,0.00,,---,0.00,0.00,VWS V14.01,2013-12-21 08:54:00,
2013-12-21 02:59:00,21.0,11.8,29.83,North,355,6.0,9.0,67,0.00,,---,0.00,0.00,VWS V14.01,2013-12-21 08:59:00,
2013-12-21 03:00:00,21.0,11.8,29.83,North,355,3.0,9.0,67,0.00,,---,0.00,0.00,VWS V14.01,2013-12-21 09:00:00,
2013-12-21 03:04:00,21.0,11.8,29.83,NNW,347,4.0,5.0,67,0.00,,---,0.00,0.00,VWS V14.01,2013-12-21 09:04:00,
2013-12-21 03:09:00,21.0,11.8,29.83,NNW,329,7.0,8.0,67,0.00,,---,0.00,0.00,VWS V14.01,2013-12-21 09:09:00,
2013-12-21 03:14:00,20.8,11.6,29.82,NNW,344,3.0,9.0,67,0.00,,---,0.00,0.00,VWS V14.01,2013-12-21 09:14:00,
2013-12-21 03:19:00,20.8,11.6,29.83,NW,315,5.0,10.0,67,0.00,,---,0.00,0.00,VWS V14.01,2013-12-21 09:19:00,
2013-12-21 03:24:00,21.0,11.8,29.84,NNW,341,2.0,10.0,67,0.00,,---,0.00,0.00,VWS V14.01,2013-12-21 09:24:00,
2013-12-21 03:29:00,21.0,11.8,29.84,WNW,296,2.0,10.0,67,0.00,,---,0.00,0.00,VWS V14.01,2013-12-21 09:29:00,
2013-12-21 03:30:00,21.0,11.8,29.84,WNW,296,3.0,10.0,67,0.00,,---,0.00,0.00,VWS V14.01,2013-12-21 09:30:00,
2013-12-21 03:34:00,21.0,11.8,29.85,NNW,337,4.0,5.0,67,0.00,,---,0.00,0.00,VWS V14.01,2013-12-21 09:34:00,
2013-12-21 03:39:00,21.1,11.9,29.85,NW,306,3.0,5.0,67,0.00,,---,0.00,0.00,VWS V14.01,2013-12-21 09:39:00,
2013-12-21 03:44:00,21.1,11.9,29.85,NW,313,1.0,5.0,67,0.00,,---,0.00,0.00,VWS V14.01,2013-12-21 09:44:00,
2013-12-21 03:49:00,21.1,11.9,29.86,NW,313,2.0,5.0,67,0.00,,---,0.00,0.00,VWS V14.01,2013-12-21 09:49:00,
2013-12-21 03:54:00,21.1,11.9,29.85,NNW,342,3.0,5.0,67,0.00,,---,0.00,0.00,VWS V14.01,2013-12-21 09:54:00,
2013-12-21 03:59:00,21.1,11.9,29.85,NNW,342,1.0,5.0,67,0.00,,---,0.00,0.00,VWS V14.01,2013-12-21 09:59:00,
2013-12-21 04:00:00,21.1,11.9,29.85,NNW,342,0.0,5.0,67,0.00,,---,0.00,0.00,VWS V14.01,2013-12-21 10:00:00,
2013-12-21 04:04:00,21.1,11.5,29.84,NNW,342,2.0,3.0,66,0.00,,---,0.00,0.00,VWS V14.01,2013-12-21 10:04:00,
2013-12-21 04:09:00,21.1,11.5,29.84,NNW,342,4.0,5.0,66,0.00,,---,0.00,0.00,VWS V14.01,2013-12-21 10:09:00,
2013-12-21 04:14:00,21.1,11.9,29.83,NNW,342,2.0,5.0,67,0.00,,---,0.00,0.00,VWS V14.01,2013-12-21 10:14:00,
2013-12-21 04:19:00,21.1,11.5,29.83,North,11,3.0,5.0,66,0.00,,---,0.00,0.00,VWS V14.01,2013-12-21 10:19:00,
2013-12-21 04:24:00,21.1,11.5,29.83,North,5,5.0,7.0,66,0.00,,---,0.00,0.00,VWS V14.01,2013-12-21 10:24:00,
2013-12-21 04:29:00,21.1,11.5,29.80,North,10,8.0,8.0,66,0.00,,---,0.00,0.00,VWS V14.01,2013-12-21 10:29:00,
2013-12-21 04:30:00,21.1,11.5,29.80,North,10,7.0,8.0,66,0.00,,---,0.00,0.00,VWS V14.01,2013-12-21 10:30:00,
2013-12-21 04:34:00,21.0,11.8,29.80,NNE,19,2.0,8.0,67,0.00,,---,0.00,0.00,VWS V14.01,2013-12-21 10:34:00,
2013-12-21 04:39:00,21.0,11.8,29.80,North,5,4.0,8.0,67,0.00,,---,0.00,0.00,VWS V14.01,2013-12-21 10:39:00,
2013-12-21 04:44:00,20.8,11.6,29.80,North,9,3.0,8.0,67,0.00,,---,0.00,0.00,VWS V14.01,2013-12-21 10:44:00,
2013-12-21 04:49:00,20.8,11.6,29.81,NNE,16,4.0,8.0,67,0.00,,---,0.00,0.00,VWS V14.01,2013-12-21 10:49:00,
2013-12-21 04:54:00,20.8,11.9,29.82,North,5,3.0,8.0,68,0.00,,---,0.00,0.00,VWS V14.01,2013-12-21 10:54:00,
2013-12-21 04:59:00,20.8,11.9,29.82,North,5,1.0,8.0,68,0.00,,---,0.00,0.00,VWS V14.01,2013-12-21 10:59:00,
2013-12-21 05:00:00,21.0,12.1,29.82,North,5,2.0,8.0,68,0.00,,---,0.00,0.00,VWS V14.01,2013-12-21 11:00:00,
2013-12-21 05:04:00,20.8,11.9,29.82,NNE,29,1.0,4.0,68,0.00,,---,0.00,0.00,VWS V14.01,2013-12-21 11:04:00,
2013-12-21 05:09:00,20.8,11.9,29.83,NNE,29,0.0,4.0,68,0.00,,---,0.00,0.00,VWS V14.01,2013-12-21 11:09:00,
2013-12-21 05:14:00,20.8,11.9,29.84,NNE,29,3.0,4.0,68,0.00,,---,0.00,0.00,VWS V14.01,2013-12-21 11:14:00,
2013-12-21 05:19:00,21.0,12.1,29.85,NNE,29,2.0,4.0,68,0.00,,---,0.00,0.00,VWS V14.01,2013-12-21 11:19:00,
2013-12-21 05:24:00,21.0,12.1,29.86,NNE,29,0.0,4.0,68,0.00,,---,0.00,0.00,VWS V14.01,2013-12-21 11:24:00,
2013-12-21 05:29:00,21.0,12.1,29.85,NNE,29,0.0,4.0,68,0.00,,---,0.00,0.00,VWS V14.01,2013-12-21 11:29:00,
2013-12-21 05:30:00,21.0,12.1,29.85,NNE,29,0.0,4.0,68,0.00,,---,0.00,0.00,VWS V14.01,2013-12-21 11:30:00,
2013-12-21 05:34:00,21.0,12.1,29.85,NNE,29,3.0,3.0,68,0.00,,---,0.00,0.00,VWS V14.01,2013-12-21 11:34:00,
2013-12-21 05:39:00,21.0,12.1,29.85,NNE,29,3.0,3.0,68,0.00,,---,0.00,0.00,VWS V14.01,2013-12-21 11:39:00,
2013-12-21 05:44:00,21.0,12.1,29.84,NNE,29,3.0,4.0,68,0.00,,---,0.00,0.00,VWS V14.01,2013-12-21 11:44:00,
2013-12-21 05:49:00,20.8,11.9,29.85,NE,46,1.0,4.0,68,0.00,,---,0.00,0.00,VWS V14.01,2013-12-21 11:49:00,
2013-12-21 05:54:00,21.0,12.1,29.85,NE,46,1.0,4.0,68,0.00,,---,0.00,0.00,VWS V14.01,2013-12-21 11:54:00,
2013-12-21 05:59:00,21.0,12.1,29.84,NE,46,2.0,4.0,68,0.00,,---,0.00,0.00,VWS V14.01,2013-12-21 11:59:00,
2013-12-21 06:00:00,21.0,12.1,29.84,NE,46,2.0,4.0,68,0.00,,---,0.00,0.00,VWS V14.01,2013-12-21 12:00:00,
2013-12-21 06:04:00,21.0,12.1,29.84,NE,46,3.0,4.0,68,0.00,,---,0.00,0.00,VWS V14.01,2013-12-21 12:04:00,
2013-12-21 06:09:00,21.0,12.4,29.84,NE,46,2.0,4.0,69,0.00,,---,0.00,0.00,VWS V14.01,2013-12-21 12:09:00,
2013-12-21 06:14:00,21.0,12.4,29.85,NE,46,2.0,4.0,69,0.00,,---,0.00,0.00,VWS V14.01,2013-12-21 12:14:00,
2013-12-21 06:19:00,21.0,12.4,29.84,ENE,74,3.0,5.0,69,0.00,,---,0.00,0.00,VWS V14.01,2013-12-21 12:19:00,
2013-12-21 06:24:00,20.8,12.2,29.84,ENE,77,5.0,6.0,69,0.00,,---,0.00,0.00,VWS V14.01,2013-12-21 12:24:00,
2013-12-21 06:29:00,21.0,12.4,29.85,East,92,4.0,6.0,69,0.00,,---,0.00,0.00,VWS V14.01,2013-12-21 12:29:00,
2013-12-21 06:30:00,21.0,12.4,29.85,East,92,5.0,6.0,69,0.00,,---,0.00,0.00,VWS V14.01,2013-12-21 12:30:00,
2013-12-21 06:34:00,21.0,12.4,29.85,East,99,4.0,6.0,69,0.00,,---,0.00,0.00,VWS V14.01,2013-12-21 12:34:00,
2013-12-21 06:39:00,21.0,12.4,29.85,East,101,5.0,8.0,69,0.00,,---,0.00,0.00,VWS V14.01,2013-12-21 12:39:00,
2013-12-21 06:44:00,21.0,12.4,29.85,East,96,4.0,8.0,69,0.00,,---,0.00,0.00,VWS V14.01,2013-12-21 12:44:00,
2013-12-21 06:49:00,21.1,12.5,29.86,East,96,2.0,8.0,69,0.00,,---,0.00,0.00,VWS V14.01,2013-12-21 12:49:00,
2013-12-21 06:54:00,21.1,12.5,29.84,East,93,4.0,8.0,69,0.00,,---,0.00,0.00,VWS V14.01,2013-12-21 12:54:00,
2013-12-21 06:59:00,21.0,12.4,29.83,East,82,3.0,8.0,69,0.00,,---,0.00,0.00,VWS V14.01,2013-12-21 12:59:00,
2013-12-21 07:00:00,21.0,12.4,29.83,East,82,3.0,8.0,69,0.00,,---,0.00,0.00,VWS V14.01,2013-12-21 13:00:00,
2013-12-21 07:04:00,21.1,12.5,29.84,East,82,0.0,4.0,69,0.00,,---,0.00,0.00,VWS V14.01,2013-12-21 13:04:00,
2013-12-21 07:09:00,21.1,13.5,29.84,NNE,25,4.0,7.0,72,0.00,,---,0.00,0.00,VWS V14.01,2013-12-21 13:09:00,
2013-12-21 07:14:00,21.3,12.7,29.84,NE,40,3.0,7.0,69,0.00,,---,0.00,0.00,VWS V14.01,2013-12-21 13:14:00,
2013-12-21 07:19:00,21.1,12.5,29.83,North,5,3.0,7.0,69,0.00,,---,0.00,0.00,VWS V14.01,2013-12-21 13:19:00,
2013-12-21 07:24:00,21.1,12.5,29.84,ENE,59,3.0,7.0,69,0.00,,---,0.00,0.00,VWS V14.01,2013-12-21 13:24:00,
2013-12-21 07:29:00,21.1,12.5,29.83,ENE,78,5.0,7.0,69,0.00,,---,0.00,0.00,VWS V14.01,2013-12-21 13:29:00,
2013-12-21 07:30:00,21.1,12.5,29.83,ENE,78,5.0,7.0,69,0.00,,---,0.00,0.00,VWS V14.01,2013-12-21 13:30:00,
2013-12-21 07:34:00,21.1,12.5,29.83,East,88,4.0,7.0,69,0.00,,---,0.00,0.00,VWS V14.01,2013-12-21 13:34:00,
2013-12-21 07:39:00,21.1,12.5,29.83,ENE,58,4.0,7.0,69,0.00,,---,0.00,0.00,VWS V14.01,2013-12-21 13:39:00,
2013-12-21 07:44:00,21.1,12.5,29.82,ENE,58,5.0,7.0,69,0.00,,---,0.00,0.00,VWS V14.01,2013-12-21 13:44:00,
2013-12-21 07:49:00,21.1,12.9,29.83,ENE,70,4.0,7.0,70,0.00,,---,0.00,0.00,VWS V14.01,2013-12-21 13:49:00,
2013-12-21 07:54:00,21.1,12.9,29.83,NNE,32,4.0,7.0,70,0.00,,---,0.00,0.00,VWS V14.01,2013-12-21 13:54:00,
2013-12-21 07:59:00,21.3,12.7,29.83,NNE,31,2.0,3.0,69,0.00,,---,0.00,0.00,VWS V14.01,2013-12-21 13:59:00,
2013-12-21 08:00:00,21.3,13.1,29.83,NNE,30,3.0,7.0,70,0.00,,---,0.00,0.00,VWS V14.01,2013-12-21 14:00:00,
2013-12-21 08:04:00,21.3,12.7,29.84,East,90,2.0,6.0,69,0.00,,---,0.00,9.00,VWS V14.01,2013-12-21 14:04:00,
2013-12-21 08:09:00,21.3,12.7,29.82,NE,49,5.0,7.0,69,0.00,,---,0.00,16.00,VWS V14.01,2013-12-21 14:09:00,
2013-12-21 08:14:00,21.1,12.9,29.81,NNE,29,7.0,7.0,70,0.00,,---,0.00,19.00,VWS V14.01,2013-12-21 14:14:00,
2013-12-21 08:19:00,21.1,12.9,29.80,NE,34,7.0,7.0,70,0.00,,---,0.00,25.00,VWS V14.01,2013-12-21 14:19:00,
2013-12-21 08:24:00,21.1,12.9,29.81,NNE,27,5.0,8.0,70,0.00,,---,0.00,23.00,VWS V14.01,2013-12-21 14:24:00,
2013-12-21 08:29:00,21.1,12.9,29.82,NE,40,3.0,3.0,70,0.00,,---,0.00,26.00,VWS V14.01,2013-12-21 14:29:00,
2013-12-21 08:30:00,21.1,12.9,29.81,NE,40,2.0,8.0,70,0.00,,---,0.00,26.00,VWS V14.01,2013-12-21 14:30:00,
2013-12-21 08:34:00,21.1,12.9,29.82,NE,40,3.0,6.0,70,0.00,,---,0.00,33.00,VWS V14.01,2013-12-21 14:34:00,
2013-12-21 08:39:00,21.1,12.9,29.82,NE,46,5.0,6.0,70,0.00,,---,0.00,35.00,VWS V14.01,2013-12-21 14:39:00,
2013-12-21 08:44:00,21.1,12.9,29.82,ENE,60,3.0,6.0,70,0.00,,---,0.00,39.00,VWS V14.01,2013-12-21 14:44:00,
2013-12-21 08:49:00,21.1,12.9,29.82,NNE,29,4.0,8.0,70,0.00,,---,0.00,42.00,VWS V14.01,2013-12-21 14:49:00,
2013-12-21 08:54:00,21.1,12.9,29.80,NNE,17,6.0,8.0,70,0.00,,---,0.00,46.00,VWS V14.01,2013-12-21 14:54:00,
2013-12-21 08:59:00,21.1,12.9,29.80,NNE,19,9.0,9.0,70,0.00,,---,0.00,47.00,VWS V14.01,2013-12-21 14:59:00,
2013-12-21 09:00:00,21.1,12.9,29.80,NNE,19,9.0,9.0,70,0.00,,---,0.00,47.00,VWS V14.01,2013-12-21 15:00:00,
2013-12-21 09:04:00,21.1,12.9,29.80,NNE,26,5.0,10.0,70,0.00,,---,0.00,51.00,VWS V14.01,2013-12-21 15:04:00,
2013-12-21 09:09:00,21.3,13.1,29.80,NNE,25,4.0,10.0,70,0.00,,---,0.00,49.00,VWS V14.01,2013-12-21 15:09:00,
2013-12-21 09:14:00,21.4,13.1,29.82,NNE,16,2.0,10.0,70,0.00,,---,0.00,47.00,VWS V14.01,2013-12-21 15:14:00,
2013-12-21 09:19:00,21.4,13.1,29.82,NNE,21,4.0,10.0,70,0.00,,---,0.00,35.00,VWS V14.01,2013-12-21 15:19:00,
2013-12-21 09:24:00,21.4,12.8,29.83,NE,35,4.0,10.0,69,0.00,,---,0.00,39.00,VWS V14.01,2013-12-21 15:24:00,
2013-12-21 09:29:00,21.6,13.3,29.83,NNE,31,5.0,5.0,70,0.00,,---,0.00,37.00,VWS V14.01,2013-12-21 15:29:00,
2013-12-21 09:30:00,21.6,13.3,29.83,NNE,31,4.0,10.0,70,0.00,,---,0.00,37.00,VWS V14.01,2013-12-21 15:30:00,
2013-12-21 09:34:00,21.6,13.0,29.81,NNE,22,6.0,11.0,69,0.00,,---,0.00,39.00,VWS V14.01,2013-12-21 15:34:00,
2013-12-21 09:39:00,21.6,13.3,29.82,NNE,20,5.0,11.0,70,0.00,,---,0.00,39.00,VWS V14.01,2013-12-21 15:39:00,
2013-12-21 09:44:00,21.8,13.2,29.82,NNE,17,5.0,11.0,69,0.00,,---,0.00,47.00,VWS V14.01,2013-12-21 15:44:00,
2013-12-21 09:49:00,21.8,13.2,29.82,NE,47,4.0,11.0,69,0.00,,---,0.00,54.00,VWS V14.01,2013-12-21 15:49:00,
2013-12-21 09:54:00,21.9,13.3,29.82,North,5,7.0,11.0,69,0.00,,---,0.00,56.00,VWS V14.01,2013-12-21 15:54:00,
2013-12-21 09:59:00,21.9,13.3,29.83,NNE,15,5.0,5.0,69,0.00,,---,0.00,63.00,VWS V14.01,2013-12-21 15:59:00,
2013-12-21 10:00:00,21.9,13.3,29.83,NNE,15,5.0,11.0,69,0.00,,---,0.00,63.00,VWS V14.01,2013-12-21 16:00:00,
2013-12-21 10:04:00,21.9,13.3,29.84,North,5,5.0,7.0,69,0.00,,---,0.00,53.00,VWS V14.01,2013-12-21 16:04:00,
2013-12-21 10:09:00,22.1,13.5,29.85,North,5,6.0,8.0,69,0.00,,---,0.00,44.00,VWS V14.01,2013-12-21 16:09:00,
2013-12-21 10:14:00,22.1,13.5,29.85,NNE,12,5.0,8.0,69,0.00,,---,0.00,47.00,VWS V14.01,2013-12-21 16:14:00,
2013-12-21 10:19:00,22.1,13.5,29.84,NNE,31,6.0,8.0,69,0.00,,---,0.00,53.00,VWS V14.01,2013-12-21 16:19:00,
2013-12-21 10:24:00,22.2,13.6,29.83,North,5,9.0,10.0,69,0.00,,---,0.00,62.00,VWS V14.01,2013-12-21 16:24:00,
2013-12-21 10:29:00,22.2,13.6,29.83,North,5,8.0,8.0,69,0.00,,---,0.00,58.00,VWS V14.01,2013-12-21 16:29:00,
2013-12-21 10:30:00,22.2,13.6,29.84,NNE,13,5.0,11.0,69,0.00,,---,0.00,58.00,VWS V14.01,2013-12-21 16:30:00,
2013-12-21 10:34:00,22.4,13.8,29.84,NE,42,6.0,9.0,69,0.00,,---,0.00,70.00,VWS V14.01,2013-12-21 16:34:00,
2013-12-21 10:39:00,22.5,13.6,29.83,NE,38,7.0,10.0,68,0.00,,---,0.00,63.00,VWS V14.01,2013-12-21 16:39:00,
2013-12-21 10:44:00,22.5,13.9,29.83,NNE,17,7.0,11.0,69,0.00,,---,0.00,74.00,VWS V14.01,2013-12-21 16:44:00,
2013-12-21 10:50:00,22.5,13.9,29.82,NNE,30,8.0,12.0,69,0.00,,---,0.00,74.00,VWS V14.01,2013-12-21 16:50:00,
2013-12-21 10:55:00,22.5,13.9,29.82,NNE,28,4.0,12.0,69,0.00,,---,0.00,74.00,VWS V14.01,2013-12-21 16:55:00,
2013-12-21 11:00:00,22.9,13.9,29.82,NNW,333,6.0,8.0,68,0.00,,---,0.00,63.00,VWS V14.01,2013-12-21 17:00:00,
2013-12-21 11:05:00,23.0,14.0,29.82,NE,38,7.0,11.0,68,0.00,,---,0.00,65.00,VWS V14.01,2013-12-21 17:05:00,
2013-12-21 11:10:00,23.2,14.2,29.82,NNE,26,4.0,11.0,68,0.00,,---,0.00,67.00,VWS V14.01,2013-12-21 17:10:00,
2013-12-21 11:15:00,23.2,14.2,29.82,NNE,24,7.0,11.0,68,0.00,,---,0.00,74.00,VWS V14.01,2013-12-21 17:15:00,
2013-12-21 11:20:00,23.2,14.2,29.81,NE,49,12.0,12.0,68,0.00,,---,0.00,77.00,VWS V14.01,2013-12-21 17:20:00,
2013-12-21 11:25:00,23.2,14.2,29.81,NE,41,5.0,13.0,68,0.00,,---,0.00,72.00,VWS V14.01,2013-12-21 17:25:00,
2013-12-21 11:30:00,23.2,13.9,29.81,NE,44,7.0,8.0,67,0.00,,---,0.00,60.00,VWS V14.01,2013-12-21 17:30:00,
2013-12-21 11:35:00,23.2,14.2,29.80,NE,42,4.0,11.0,68,0.00,,---,0.00,54.00,VWS V14.01,2013-12-21 17:35:00,
2013-12-21 11:40:00,23.5,14.2,29.80,North,360,5.0,11.0,67,0.00,,---,0.00,54.00,VWS V14.01,2013-12-21 17:40:00,
2013-12-21 11:45:00,23.6,14.3,29.80,NE,55,7.0,11.0,67,0.00,,---,0.00,72.00,VWS V14.01,2013-12-21 17:45:00,
2013-12-21 11:50:00,23.5,14.5,29.79,NE,46,8.0,11.0,68,0.00,,---,0.00,56.00,VWS V14.01,2013-12-21 17:50:00,
2013-12-21 11:55:00,23.6,14.6,29.78,NE,38,4.0,11.0,68,0.00,,---,0.00,67.00,VWS V14.01,2013-12-21 17:55:00,
2013-12-21 12:00:00,23.8,14.5,29.77,NNE,26,10.0,10.0,67,0.00,,---,0.00,70.00,VWS V14.01,2013-12-21 18:00:00,
2013-12-21 12:05:00,23.9,14.6,29.77,NNE,26,9.0,11.0,67,0.00,,---,0.00,60.00,VWS V14.01,2013-12-21 18:05:00,
2013-12-21 12:10:00,23.8,14.8,29.77,NE,34,11.0,11.0,68,0.00,,---,0.00,60.00,VWS V14.01,2013-12-21 18:10:00,
2013-12-21 12:15:00,23.8,14.8,29.78,NE,55,4.0,11.0,68,0.00,,---,0.00,56.00,VWS V14.01,2013-12-21 18:15:00,
2013-12-21 12:20:00,24.1,14.7,29.77,NE,53,7.0,12.0,67,0.00,,---,0.00,74.00,VWS V14.01,2013-12-21 18:20:00,
2013-12-21 12:25:00,24.2,14.8,29.77,NE,41,5.0,12.0,67,0.00,,---,0.00,60.00,VWS V14.01,2013-12-21 18:25:00,
2013-12-21 12:30:00,24.2,14.8,29.76,NNE,26,8.0,12.0,67,0.00,,---,0.00,72.00,VWS V14.01,2013-12-21 18:30:00,
2013-12-21 12:35:00,24.1,15.1,29.76,NNE,15,7.0,12.0,68,0.00,,---,0.00,72.00,VWS V14.01,2013-12-21 18:35:00,
2013-12-21 12:40:00,24.2,15.5,29.76,ENE,60,8.0,14.0,69,0.00,,---,0.00,58.00,VWS V14.01,2013-12-21 18:40:00,
2013-12-21 12:45:00,24.2,15.2,29.74,NE,54,7.0,14.0,68,0.00,,---,0.00,77.00,VWS V14.01,2013-12-21 18:45:00,
2013-12-21 12:50:00,24.4,15.4,29.75,NE,44,7.0,14.0,68,0.00,,---,0.00,81.00,VWS V14.01,2013-12-21 18:50:00,
2013-12-21 12:55:00,24.5,15.5,29.75,NE,46,6.0,14.0,68,0.00,,---,0.00,63.00,VWS V14.01,2013-12-21 18:55:00,
2013-12-21 13:00:00,24.7,15.7,29.75,NE,48,8.0,8.0,68,0.00,,---,0.00,67.00,VWS V14.01,2013-12-21 19:00:00,
2013-12-21 13:05:00,24.4,15.7,29.75,NE,43,8.0,12.0,69,0.00,,---,0.00,69.00,VWS V14.01,2013-12-21 19:05:00,
2013-12-21 13:10:00,24.4,15.4,29.73,NNE,32,5.0,12.0,68,0.00,,---,0.00,74.00,VWS V14.01,2013-12-21 19:10:00,
2013-12-21 13:15:00,24.5,15.5,29.73,North,5,7.0,12.0,68,0.00,,---,0.00,63.00,VWS V14.01,2013-12-21 19:15:00,
2013-12-21 13:20:00,24.7,15.7,29.73,NNE,32,5.0,12.0,68,0.00,,---,0.00,56.00,VWS V14.01,2013-12-21 19:20:00,
2013-12-21 13:25:00,24.7,16.0,29.73,ENE,61,12.0,13.0,69,0.00,,---,0.00,46.00,VWS V14.01,2013-12-21 19:25:00,
2013-12-21 13:30:00,24.7,16.0,29.72,NNE,33,5.0,11.0,69,0.00,,---,0.00,39.00,VWS V14.01,2013-12-21 19:30:00,
2013-12-21 13:35:00,24.8,16.1,29.72,NE,37,5.0,12.0,69,0.00,,---,0.00,37.00,VWS V14.01,2013-12-21 19:35:00,
2013-12-21 13:40:00,24.7,16.0,29.72,ENE,58,8.0,15.0,69,0.00,,---,0.00,33.00,VWS V14.01,2013-12-21 19:40:00,
2013-12-21 13:45:00,24.7,16.0,29.72,NE,49,10.0,15.0,69,0.00,,---,0.00,37.00,VWS V14.01,2013-12-21 19:45:00,
2013-12-21 13:50:00,24.7,16.0,29.73,ENE,65,7.0,15.0,69,0.00,,---,0.00,26.00,VWS V14.01,2013-12-21 19:50:00,
2013-12-21 13:55:00,24.8,16.1,29.73,NE,45,10.0,15.0,69,0.00,,---,0.00,37.00,VWS V14.01,2013-12-21 19:55:00,
2013-12-21 14:00:00,24.7,16.0,29.73,NE,35,9.0,12.0,69,0.00,,---,0.00,35.00,VWS V14.01,2013-12-21 20:00:00,
2013-12-21 14:05:00,24.7,16.0,29.72,NE,43,8.0,12.0,69,0.00,,---,0.00,37.00,VWS V14.01,2013-12-21 20:05:00,
2013-12-21 14:10:00,24.7,16.3,29.72,NE,34,5.0,14.0,70,0.00,,---,0.00,39.00,VWS V14.01,2013-12-21 20:10:00,
2013-12-21 14:15:00,24.8,16.4,29.72,NE,53,7.0,14.0,70,0.00,,---,0.00,33.00,VWS V14.01,2013-12-21 20:15:00,
2013-12-21 14:20:00,24.7,16.3,29.72,NNE,30,7.0,14.0,70,0.00,,---,0.00,35.00,VWS V14.01,2013-12-21 20:20:00,
2013-12-21 14:25:00,24.7,16.3,29.73,NE,48,6.0,14.0,70,0.00,,---,0.00,32.00,VWS V14.01,2013-12-21 20:25:00,
2013-12-21 14:30:00,24.7,16.6,29.72,NE,34,7.0,7.0,71,0.00,,---,0.00,32.00,VWS V14.01,2013-12-21 20:30:00,
2013-12-21 14:35:00,24.7,16.6,29.71,NE,43,8.0,13.0,71,0.00,,---,0.00,39.00,VWS V14.01,2013-12-21 20:35:00,
2013-12-21 14:40:00,24.7,16.6,29.72,NE,40,7.0,14.0,71,0.00,,---,0.00,35.00,VWS V14.01,2013-12-21 20:40:00,
2013-12-21 14:45:00,24.7,17.0,29.71,NE,46,10.0,14.0,72,0.00,,---,0.00,44.00,VWS V14.01,2013-12-21 20:45:00,
2013-12-21 14:50:00,24.7,17.0,29.71,NE,45,11.0,14.0,72,0.00,,---,0.00,42.00,VWS V14.01,2013-12-21 20:50:00,
2013-12-21 14:55:00,24.5,16.8,29.71,NE,50,10.0,15.0,72,0.00,,---,0.00,40.00,VWS V14.01,2013-12-21 20:55:00,
2013-12-21 15:00:00,24.7,17.0,29.72,NE,36,10.0,14.0,72,0.00,,---,0.00,32.00,VWS V14.01,2013-12-21 21:00:00,
2013-12-21 15:05:00,24.7,17.3,29.73,NE,51,12.0,14.0,73,0.00,,---,0.00,30.00,VWS V14.01,2013-12-21 21:05:00,
2013-12-21 15:10:00,24.7,17.3,29.72,NE,36,8.0,14.0,73,0.00,,---,0.00,28.00,VWS V14.01,2013-12-21 21:10:00,
2013-12-21 15:15:00,24.7,17.3,29.74,ENE,58,12.0,14.0,73,0.00,,---,0.00,23.00,VWS V14.01,2013-12-21 21:15:00,
2013-12-21 15:20:00,24.7,17.3,29.73,NE,42,11.0,14.0,73,0.00,,---,0.00,19.00,VWS V14.01,2013-12-21 21:20:00,
2013-12-21 15:25:00,24.7,17.6,29.73,ENE,57,7.0,14.0,74,0.00,,---,0.00,16.00,VWS V14.01,2013-12-21 21:25:00,
2013-12-21 15:30:00,24.5,17.4,29.72,NE,38,11.0,12.0,74,0.00,,---,0.00,14.00,VWS V14.01,2013-12-21 21:30:00,
2013-12-21 15:35:00,24.4,17.6,29.70,NNE,15,8.0,15.0,75,0.00,,---,0.00,18.00,VWS V14.01,2013-12-21 21:35:00,
2013-12-21 15:40:00,24.4,17.9,29.71,NE,42,7.0,15.0,76,0.00,,---,0.00,14.00,VWS V14.01,2013-12-21 21:40:00,
2013-12-21 15:45:00,24.2,18.0,29.71,NNE,25,7.0,15.0,77,0.00,,---,0.00,14.00,VWS V14.01,2013-12-21 21:45:00,
2013-12-21 15:50:00,24.1,18.5,29.70,NNE,17,6.0,15.0,79,0.00,,---,0.00,16.00,VWS V14.01,2013-12-21 21:50:00,
2013-12-21 15:55:00,23.9,18.6,29.70,NNE,21,8.0,16.0,80,0.00,,---,0.00,12.00,VWS V14.01,2013-12-21 21:55:00,
2013-12-21 16:00:00,23.8,18.8,29.71,NE,40,8.0,11.0,81,0.00,,---,0.00,9.00,VWS V14.01,2013-12-21 22:00:00,
2013-12-21 16:05:00,23.6,18.9,29.71,NNE,27,14.0,16.0,82,0.00,,---,0.00,12.00,VWS V14.01,2013-12-21 22:05:00,
2013-12-21 16:10:00,23.6,19.2,29.71,NNE,24,10.0,16.0,83,0.00,,---,0.00,11.00,VWS V14.01,2013-12-21 22:10:00,
2013-12-21 16:15:00,23.6,19.2,29.71,NNE,32,12.0,16.0,83,0.00,,---,0.00,9.00,VWS V14.01,2013-12-21 22:15:00,
2013-12-21 16:20:00,23.5,19.4,29.71,NNE,30,8.0,16.0,84,0.00,,---,0.00,7.00,VWS V14.01,2013-12-21 22:20:00,
2013-12-21 16:25:00,23.5,19.4,29.71,NE,40,8.0,16.0,84,0.00,,---,0.00,7.00,VWS V14.01,2013-12-21 22:25:00,
2013-12-21 16:30:00,23.5,19.7,29.71,NNE,21,7.0,8.0,85,0.00,,---,0.00,7.00,VWS V14.01,2013-12-21 22:30:00,
2013-12-21 16:35:00,23.5,19.7,29.70,NNE,28,10.0,15.0,85,0.00,,---,0.00,7.00,VWS V14.01,2013-12-21 22:35:00,
2013-12-21 16:40:00,23.5,19.9,29.70,NNE,24,9.0,15.0,86,0.00,,---,0.00,5.00,VWS V14.01,2013-12-21 22:40:00,
2013-12-21 16:45:00,23.5,19.9,29.70,NNE,15,7.0,15.0,86,0.00,,---,0.00,5.00,VWS V14.01,2013-12-21 22:45:00,
2013-12-21 16:50:00,23.3,19.7,29.70,NNE,19,6.0,15.0,86,0.00,,---,0.00,0.00,VWS V14.01,2013-12-21 22:50:00,
2013-12-21 16:55:00,23.3,20.0,29.69,NNE,15,15.0,18.0,87,0.00,,---,0.00,0.00,VWS V14.01,2013-12-21 22:55:00,
2013-12-21 17:00:00,23.3,20.0,29.69,North,360,4.0,9.0,87,0.00,,---,0.00,0.00,VWS V14.01,2013-12-21 23:00:00,
2013-12-21 17:05:00,23.2,19.9,29.69,North,355,8.0,17.0,87,0.00,,---,0.00,0.00,VWS V14.01,2013-12-21 23:05:00,
2013-12-21 17:10:00,23.2,20.2,29.69,North,11,5.0,17.0,88,0.00,,---,0.00,0.00,VWS V14.01,2013-12-21 23:10:00,
2013-12-21 17:15:00,23.2,20.2,29.69,North,5,8.0,17.0,88,0.00,,---,0.00,0.00,VWS V14.01,2013-12-21 23:15:00,
2013-12-21 17:20:00,23.2,20.2,29.69,NNE,16,9.0,17.0,88,0.00,,---,0.00,0.00,VWS V14.01,2013-12-21 23:20:00,
2013-12-21 17:25:00,23.2,20.2,29.69,North,5,9.0,17.0,88,0.00,,---,0.00,0.00,VWS V14.01,2013-12-21 23:25:00,
2013-12-21 17:30:00,23.2,20.2,29.70,NNE,14,9.0,11.0,88,0.00,,---,0.00,0.00,VWS V14.01,2013-12-21 23:30:00,
2013-12-21 17:35:00,23.2,20.2,29.70,North,5,5.0,13.0,88,0.00,,---,0.00,0.00,VWS V14.01,2013-12-21 23:35:00,
2013-12-21 17:40:00,23.2,20.2,29.69,North,5,8.0,13.0,88,0.00,,---,0.00,0.00,VWS V14.01,2013-12-21 23:40:00,
2013-12-21 17:45:00,23.2,20.2,29.70,North,355,11.0,15.0,88,0.00,,---,0.00,0.00,VWS V14.01,2013-12-21 23:45:00,
2013-12-21 17:50:00,23.2,20.2,29.70,North,355,7.0,15.0,88,0.00,,---,0.00,0.00,VWS V14.01,2013-12-21 23:50:00,
2013-12-21 17:55:00,23.2,20.5,29.70,North,10,10.0,16.0,89,0.00,,---,0.00,0.00,VWS V14.01,2013-12-21 23:55:00,
2013-12-21 18:00:00,23.2,20.5,29.70,North,5,10.0,13.0,89,0.00,,---,0.00,0.00,VWS V14.01,2013-12-22 00:00:00,
2013-12-21 18:05:00,23.2,20.5,29.70,North,360,17.0,17.0,89,0.00,,---,0.00,0.00,VWS V14.01,2013-12-22 00:05:00,
2013-12-21 18:10:00,23.2,20.5,29.70,NNW,348,13.0,18.0,89,0.00,,---,0.00,0.00,VWS V14.01,2013-12-22 00:10:00,
2013-12-21 18:15:00,23.2,20.5,29.70,NNE,21,16.0,18.0,89,0.00,,---,0.00,0.00,VWS V14.01,2013-12-22 00:15:00,
2013-12-21 18:20:00,23.2,20.5,29.70,NNE,19,15.0,19.0,89,0.00,,---,0.00,0.00,VWS V14.01,2013-12-22 00:20:00,
2013-12-21 18:25:00,23.2,20.5,29.70,North,360,15.0,19.0,89,0.00,,---,0.00,0.00,VWS V14.01,2013-12-22 00:25:00,
2013-12-21 18:30:00,23.2,20.5,29.70,NNW,342,9.0,18.0,89,0.00,,---,0.00,0.00,VWS V14.01,2013-12-22 00:30:00,
2013-12-21 18:35:00,23.2,20.5,29.71,NNE,20,12.0,20.0,89,0.00,,---,0.00,0.00,VWS V14.01,2013-12-22 00:35:00,
2013-12-21 18:40:00,23.3,20.5,29.72,North,5,8.0,20.0,89,0.00,,---,0.00,0.00,VWS V14.01,2013-12-22 00:40:00,
2013-12-21 18:45:00,23.3,20.5,29.72,NNE,27,10.0,20.0,89,0.00,,---,0.00,0.00,VWS V14.01,2013-12-22 00:45:00,
2013-12-21 18:50:00,23.3,20.5,29.74,NNE,33,5.0,20.0,89,0.00,,---,0.00,0.00,VWS V14.01,2013-12-22 00:50:00,
2013-12-21 18:55:00,23.3,20.5,29.74,North,5,9.0,20.0,89,0.00,,---,0.00,0.00,VWS V14.01,2013-12-22 00:55:00,
2013-12-21 19:00:00,23.5,20.7,29.74,North,355,7.0,10.0,89,0.00,,---,0.00,0.00,VWS V14.01,2013-12-22 01:00:00,
2013-12-21 19:05:00,23.5,20.7,29.74,North,350,6.0,13.0,89,0.00,,---,0.00,0.00,VWS V14.01,2013-12-22 01:05:00,
2013-12-21 19:10:00,23.5,20.7,29.74,NNW,340,11.0,15.0,89,0.00,,---,0.00,0.00,VWS V14.01,2013-12-22 01:10:00,
2013-12-21 19:15:00,23.5,20.7,29.74,NW,315,7.0,15.0,89,0.00,,---,0.00,0.00,VWS V14.01,2013-12-22 01:15:00,
2013-12-21 19:20:00,23.5,20.7,29.74,NNW,343,10.0,15.0,89,0.00,,---,0.00,0.00,VWS V14.01,2013-12-22 01:20:00,
2013-12-21 19:25:00,23.5,20.7,29.74,North,5,10.0,15.0,89,0.00,,---,0.00,0.00,VWS V14.01,2013-12-22 01:25:00,
2013-12-21 19:30:00,23.5,20.7,29.75,NNW,348,10.0,10.0,89,0.00,,---,0.00,0.00,VWS V14.01,2013-12-22 01:30:00,
2013-12-21 19:35:00,23.6,20.8,29.75,NNE,13,14.0,16.0,89,0.00,,---,0.00,0.00,VWS V14.01,2013-12-22 01:35:00,
2013-12-21 19:40:00,23.6,20.8,29.75,NNE,19,7.0,16.0,89,0.00,,---,0.00,0.00,VWS V14.01,2013-12-22 01:40:00,
2013-12-21 19:45:00,23.6,20.8,29.76,North,5,6.0,16.0,89,0.00,,---,0.00,0.00,VWS V14.01,2013-12-22 01:45:00,
2013-12-21 19:50:00,23.6,20.8,29.76,NNE,15,6.0,16.0,89,0.00,,---,0.00,0.00,VWS V14.01,2013-12-22 01:50:00,
2013-12-21 19:55:00,23.6,20.8,29.77,North,5,8.0,16.0,89,0.00,,---,0.00,0.00,VWS V14.01,2013-12-22 01:55:00,
2013-12-21 20:00:00,23.6,20.8,29.77,North,11,7.0,9.0,89,0.00,,---,0.00,0.00,VWS V14.01,2013-12-22 02:00:00,
2013-12-21 20:05:00,23.6,20.8,29.77,North,5,6.0,11.0,89,0.00,,---,0.00,0.00,VWS V14.01,2013-12-22 02:05:00,
2013-12-21 20:10:00,23.6,20.8,29.77,NNE,16,4.0,11.0,89,0.00,,---,0.00,0.00,VWS V14.01,2013-12-22 02:10:00,
2013-12-21 20:15:00,23.6,20.8,29.77,North,9,7.0,11.0,89,0.00,,---,0.00,0.00,VWS V14.01,2013-12-22 02:15:00,
2013-12-21 20:20:00,23.6,20.8,29.77,North,5,8.0,11.0,89,0.00,,---,0.00,0.00,VWS V14.01,2013-12-22 02:20:00,
2013-12-21 20:25:00,23.6,20.8,29.78,North,360,4.0,12.0,89,0.00,,---,0.00,0.00,VWS V14.01,2013-12-22 02:25:00,
2013-12-21 20:30:00,23.6,20.8,29.78,North,5,9.0,10.0,89,0.00,,---,0.00,0.00,VWS V14.01,2013-12-22 02:30:00,
2013-12-21 20:35:00,23.6,20.8,29.78,North,5,6.0,12.0,89,0.00,,---,0.00,0.00,VWS V14.01,2013-12-22 02:35:00,
2013-12-21 20:40:00,23.6,20.8,29.78,North,5,7.0,12.0,89,0.00,,---,0.00,0.00,VWS V14.01,2013-12-22 02:40:00,
2013-12-21 20:45:00,23.8,21.0,29.78,NNW,331,9.0,12.0,89,0.00,,---,0.00,0.00,VWS V14.01,2013-12-22 02:45:00,
2013-12-21 20:50:00,23.8,21.0,29.78,North,355,10.0,12.0,89,0.00,,---,0.00,0.00,VWS V14.01,2013-12-22 02:50:00,
2013-12-21 20:55:00,23.8,21.0,29.78,NNW,344,6.0,14.0,89,0.00,,---,0.00,0.00,VWS V14.01,2013-12-22 02:55:00,
2013-12-21 21:00:00,23.8,21.0,29.78,NNW,347,8.0,9.0,89,0.00,,---,0.00,0.00,VWS V14.01,2013-12-22 03:00:00,
2013-12-21 21:05:00,23.8,21.0,29.78,NNW,342,5.0,10.0,89,0.00,,---,0.00,0.00,VWS V14.01,2013-12-22 03:05:00,
2013-12-21 21:10:00,23.8,21.0,29.78,NNW,348,8.0,14.0,89,0.00,,---,0.00,0.00,VWS V14.01,2013-12-22 03:10:00,
2013-12-21 21:15:00,23.8,21.0,29.78,NNW,336,12.0,16.0,89,0.00,,---,0.00,0.00,VWS V14.01,2013-12-22 03:15:00,
2013-12-21 21:20:00,23.6,20.8,29.77,NNW,344,7.0,16.0,89,0.00,,---,0.00,0.00,VWS V14.01,2013-12-22 03:20:00,
2013-12-21 21:25:00,23.6,20.8,29.78,North,355,5.0,16.0,89,0.00,,---,0.00,0.00,VWS V14.01,2013-12-22 03:25:00,
2013-12-21 21:30:00,23.8,21.0,29.78,North,350,14.0,14.0,89,0.00,,---,0.00,0.00,VWS V14.01,2013-12-22 03:30:00,
2013-12-21 21:35:00,23.6,20.8,29.78,North,360,10.0,15.0,89,0.00,,---,0.00,0.00,VWS V14.01,2013-12-22 03:35:00,
2013-12-21 21:40:00,23.6,20.8,29.78,NNW,335,16.0,19.0,89,0.00,,---,0.00,0.00,VWS V14.01,2013-12-22 03:40:00,
2013-12-21 21:45:00,23.6,20.8,29.78,North,5,9.0,19.0,89,0.00,,---,0.00,0.00,VWS V14.01,2013-12-22 03:45:00,
2013-12-21 21:50:00,23.6,20.8,29.78,North,350,14.0,19.0,89,0.00,,---,0.00,0.00,VWS V14.01,2013-12-22 03:50:00,
2013-12-21 21:55:00,23.6,20.8,29.79,North,360,7.0,19.0,89,0.00,,---,0.00,0.00,VWS V14.01,2013-12-22 03:55:00,
2013-12-21 22:00:00,23.6,20.8,29.79,NNW,343,11.0,14.0,89,0.00,,---,0.00,0.00,VWS V14.01,2013-12-22 04:00:00,
2013-12-21 22:05:00,23.6,20.8,29.79,NNW,344,11.0,14.0,89,0.00,,---,0.00,0.00,VWS V14.01,2013-12-22 04:05:00,
2013-12-21 22:10:00,23.6,20.8,29.79,North,360,8.0,14.0,89,0.00,,---,0.00,0.00,VWS V14.01,2013-12-22 04:10:00,
2013-12-21 22:15:00,23.6,20.8,29.79,NNW,337,3.0,14.0,89,0.00,,---,0.00,0.00,VWS V14.01,2013-12-22 04:15:00,
2013-12-21 22:20:00,23.6,20.8,29.79,North,350,12.0,14.0,89,0.00,,---,0.00,0.00,VWS V14.01,2013-12-22 04:20:00,
2013-12-21 22:25:00,23.6,20.8,29.80,NNW,331,11.0,16.0,89,0.00,,---,0.00,0.00,VWS V14.01,2013-12-22 04:25:00,
2013-12-21 22:30:00,23.5,20.7,29.80,NNW,336,8.0,16.0,89,0.00,,---,0.00,0.00,VWS V14.01,2013-12-22 04:30:00,
2013-12-21 22:35:00,23.5,20.7,29.80,North,5,13.0,18.0,89,0.00,,---,0.00,0.00,VWS V14.01,2013-12-22 04:35:00,
2013-12-21 22:40:00,23.3,20.5,29.80,NNW,342,14.0,18.0,89,0.00,,---,0.00,0.00,VWS V14.01,2013-12-22 04:40:00,
2013-12-21 22:45:00,23.3,20.5,29.80,North,360,14.0,25.0,89,0.00,,---,0.00,0.00,VWS V14.01,2013-12-22 04:45:00,
2013-12-21 22:50:00,23.2,20.5,29.80,NNE,13,7.0,25.0,89,0.00,,---,0.00,0.00,VWS V14.01,2013-12-22 04:50:00,
2013-12-21 22:55:00,23.0,20.2,29.81,NW,326,13.0,25.0,89,0.00,,---,0.00,0.00,VWS V14.01,2013-12-22 04:55:00,
2013-12-21 23:00:00,22.9,20.1,29.81,North,5,8.0,11.0,89,0.00,,---,0.00,0.00,VWS V14.01,2013-12-22 05:00:00,
2013-12-21 23:01:00,22.9,20.1,29.81,North,355,7.0,11.0,89,0.00,,---,0.00,0.00,VWS V14.01,2013-12-22 05:01:00,
2013-12-21 23:02:00,22.9,20.1,29.81,NNW,329,9.0,11.0,89,0.00,,---,0.00,0.00,VWS V14.01,2013-12-22 05:02:00,
2013-12-21 23:07:00,22.7,20.0,29.82,North,355,12.0,18.0,89,0.00,,---,0.00,0.00,VWS V14.01,2013-12-22 05:07:00,
2013-12-21 23:12:00,22.7,20.0,29.82,NNW,340,10.0,18.0,89,0.00,,---,0.00,0.00,VWS V14.01,2013-12-22 05:12:00,
2013-12-21 23:17:00,22.7,20.0,29.82,North,5,10.0,18.0,89,0.00,,---,0.00,0.00,VWS V14.01,2013-12-22 05:17:00,
2013-12-21 23:22:00,22.7,20.0,29.83,NW,326,6.0,18.0,89,0.00,,---,0.00,0.00,VWS V14.01,2013-12-22 05:22:00,
2013-12-21 23:27:00,22.7,20.0,29.83,NNW,342,7.0,18.0,89,0.00,,---,0.00,0.00,VWS V14.01,2013-12-22 05:27:00,
2013-12-21 23:30:00,22.7,20.0,29.83,NNW,329,6.0,18.0,89,0.00,,---,0.00,0.00,VWS V14.01,2013-12-22 05:30:00,
2013-12-21 23:32:00,22.7,20.0,29.84,NW,323,9.0,11.0,89,0.00,,---,0.00,0.00,VWS V14.01,2013-12-22 05:32:00,
2013-12-21 23:37:00,22.7,20.0,29.84,NNW,342,14.0,15.0,89,0.00,,---,0.00,0.00,VWS V14.01,2013-12-22 05:37:00,
2013-12-21 23:42:00,22.5,19.8,29.84,NNW,331,10.0,15.0,89,0.00,,---,0.00,0.00,VWS V14.01,2013-12-22 05:42:00,
2013-12-21 23:47:00,22.5,19.8,29.85,NNW,336,9.0,15.0,89,0.00,,---,0.00,0.00,VWS V14.01,2013-12-22 05:47:00,
2013-12-21 23:52:00,22.5,19.8,29.85,NNW,331,14.0,15.0,89,0.00,,---,0.00,0.00,VWS V14.01,2013-12-22 05:52:00,
2013-12-21 23:57:00,22.5,19.8,29.85,NNW,346,12.0,15.0,89,0.00,,---,0.00,0.00,VWS V14.01,2013-12-22 05:57:00,